Location: Sungai Bunut
(2.6333°N, 113.7333°E)
Time: 02:16:22
(UTC+00:00)

S-56A Canister/Altair - Pass Details

Date: 03 December 2023
Orbit: 640 x 2488 km, 38.9° (Epoch: 24 February)

Event Time Altitude Azimuth Distance (km) Brightness Sun altitude
Rises 02:32:27 0° 255° (WSW) 4,054 11.1 54.9°
Reaches altitude 10° 02:36:25 10° 270° (W) 2,759 10.2 55.6°
Maximum altitude 02:40:51 20° 315° (NW) 1,846 9.4 56.3°
Drops below altitude 10° 02:44:29 10° 2° (N) 2,206 9.8 56.9°
Sets 02:47:15 0° 21° (NNE) 3,001 10.4 57.4°
